Regional Weather Roundup
Issued by NWS

Home | Current Version | Previous Version | Text Only | Print | Product List | Glossary Off
Versions: 1 2 3 4 5 6 7 8 9 10 11 12 13 14 15 16 17 18 19 20 21 22 23 24 25 26 27 28 29 30 31 32 33 34 35 36 37 38 39 40 41 42 43 44 45 46 47 48 49 50

000
ASUS45 KABQ 282110
RWRNM
WEATHER ROUNDUP FOR NEW MEXICO
NATIONAL WEATHER SERVICE ALBUQUERQUE NM
200 PM MST WED JAN 28 2015

NOTE: "FAIR" MEANS FEW OR NO CLOUDS BELOW 12,000 FEET AGL WITH NO
       SIGNIFICANT WEATHER OR OBSTRUCTIONS TO VISION.

      THIS PRODUCT IS RELEASED AS TWO VERSIONS.  ONE VERSION NEAR
      THE TOP OF THE HOUR CONTAINING PRELIMINARY DATA FROM ALBUQUERQUE
      AND OTHER STATIONS.  A FINAL VERSION WITH ADDITIONAL DATA IS
      ISSUED ABOUT 10 MINUTES AFTER THE HOUR.

NMZ501-503-504-510>518-282200-
NORTHWEST PLATEAU/NORTHCENTRAL MOUNTAINS

CITY           SKY/WX    TMP DP  RH WIND       PRES   REMARKS
FARMINGTON     SUNNY     55  32  41 W8        30.21F
LOS ALAMOS     SUNNY     49  29  46 E3        30.21F
SANTA FE       SUNNY     57  28  33 N12       30.16F
TAOS           SUNNY     52  28  40 S10G16    30.20F
ANGEL FIRE     FAIR      44  25  47 W18G26    30.20F

$$
NMZ402-403-502-505>509-282200-
WESTCENTRAL MOUNTAINS/SOUTHWEST MOUNTAINS

CITY           SKY/WX    TMP DP  RH WIND       PRES   REMARKS
GALLUP         MOSUNNY   53  30  41 W7        30.24F
GRANTS         MOSUNNY   58  26  29 N9G17     30.22F
SILVER CITY    SUNNY     66  28  24 NW7       30.19F

$$
NMZ407-409-411-412-282200-
SOUTHERN DESERTS

CITY           SKY/WX    TMP DP  RH WIND       PRES   REMARKS
LORDSBURG      FAIR      68  32  26 NW5       30.14F
DEMING         SUNNY     69  37  30 SE3       30.13F
LAS CRUCES     SUNNY     68  36  31 CALM      30.16F
HOLLOMAN AFB   MOSUNNY   70  37  30 SW5       30.12F
ALAMOGORDO     MOSUNNY   68  34  28 N7        30.15F
T OR C         SUNNY     66  34  30 SW3       30.14F

$$
NMZ519>523-282200-
CENTRAL VALLEYS/CENTRAL HIGHLANDS

CITY           SKY/WX    TMP DP  RH WIND       PRES   REMARKS
ALBUQUERQUE    PTSUNNY   62  28  27 W13       30.17F
DOUBLE EAGLE   MOSUNNY   59  28  31 W9        30.19F
MORIARTY ARPT  FAIR      60  28  29 W16       30.16F
CLINES CORNERS SUNNY     54  25  32 NW29G40   30.12F
BELEN          FAIR      63  31  30 W8        30.17F
SOCORRO          N/A     67  33  28 SW5       30.15F

$$
NMZ524>526-539-540-282200-
SOUTHCENTRAL MOUNTAINS

CITY           SKY/WX    TMP DP  RH WIND       PRES   REMARKS
RUIDOSO        SUNNY     57  27  30 N9G20     30.22F

$$
NMZ527>531-282200-
NORTHEAST HIGHLANDS/NORTHEAST PLAINS

CITY           SKY/WX    TMP DP  RH WIND       PRES   REMARKS
LAS VEGAS      SUNNY     61  24  24 S8        30.10F
RATON          MOSUNNY   66  12  12 W22G30    30.03F
CLAYTON        MOSUNNY   66  25  21 S3        30.03F

$$
NMZ532>537-282200-
EASTCENTRAL PLAINS

CITY           SKY/WX    TMP DP  RH WIND       PRES   REMARKS
TUCUMCARI      SUNNY     70  28  21 VRB3      30.01F
CANNON AFB     SUNNY     68  32  26 W23       30.04F
CLOVIS AIRPORT SUNNY     70  34  26 W20G26    30.04F

$$
NMZ028-029-538-282200-
SOUTHEAST PLAINS

CITY           SKY/WX    TMP DP  RH WIND       PRES   REMARKS
ROSWELL        SUNNY     73  36  25 VRB5      30.07F
ARTESIA        SUNNY     72  37  28 VRB5      30.08F
CARLSBAD       SUNNY     77  37  23 SW16      30.06F
HOBBS          SUNNY     72  36  26 W14       30.09F


$$


USA.gov is the U.S. government's official web portal to all federal, state and local government web resources and services.